Flag for Puerto Rico Weather past 2 weeks in San Juan, Puerto Rico

Now
92 °F

Passing clouds.


Feels Like: 98 °F
Forecast: 77 / 91 °F
Wind: 13 mph from South

Location: Luis Munoz Marin

Current Time: Apr 27, 2015 at 1:41:20 PM

Latest Report: Apr 27, 2015 at 12:56 PM


Visibility: 10 mi

Pressure: 29.90 "Hg

Humidity: 49%

Dew point: 70 °F

Location of San JuanLocation

Historic Weather in San Juan — Graph

°F

San Juan temperature yesterday

Maximum temperature yesterday: 93 °F (at 12:56 PM)
Minimum temperature yesterday: 77 °F (at 5:56 AM)
Average temperature yesterday: 84 °F

Past Weeks' High & Low Weather Summary

 TemperatureHumidityPressure
High93 °F (Apr 26, 12:56 PM)94% (Apr 15, 8:56 AM)30.14 "Hg (Apr 15, 8:56 AM)
Low73 °F (Apr 18, 5:56 AM)44% (Apr 26, 12:56 PM)29.88 "Hg (Apr 25, 4:56 PM)
Average81 °F74%30.01 "Hg
* Reported Apr 12 11:56 AM — Apr 27 11:56 AM, San Juan, Weather by CustomWeather, © 2015

Note: Actual official high and low records may vary slightly from our data, if they occured in-between our weather recording intervals... More about our weather records

Advertising

San Juan weather history for previous 24 hours

 ConditionsComfort  
Time TempWeatherWind HumidityBarometerVisibility
11:56 AM
Mon, Apr 27
92 °FPassing clouds.13 mph49%29.92 "Hg10 mi
10:56 AM90 °FPassing clouds.12 mph54%29.94 "Hg10 mi
9:56 AM88 °FPassing clouds.10 mph57%29.95 "Hg10 mi
8:56 AM86 °FPassing clouds.12 mph65%29.96 "Hg10 mi
7:56 AM84 °FPassing clouds.7 mph70%29.95 "Hg10 mi
6:56 AM80 °FPassing clouds.6 mph79%29.93 "Hg9 mi
5:56 AM79 °FPassing clouds.No wind82%29.91 "Hg10 mi
4:56 AM79 °FClear.3 mph84%29.90 "Hg10 mi
3:56 AM79 °FClear.5 mph84%29.90 "Hg10 mi
2:56 AM79 °FClear.5 mph84%29.89 "Hg10 mi
1:56 AM80 °FClear.No wind81%29.90 "Hg10 mi
12:56 AM80 °FClear.5 mph81%29.92 "Hg10 mi
11:56 PM
Sun, Apr 26
80 °FClear.6 mph81%29.95 "Hg10 mi
10:56 PM81 °FClear.3 mph79%29.96 "Hg10 mi
9:56 PM82 °FClear.5 mph74%29.96 "Hg10 mi
8:56 PM82 °FClear.3 mph74%29.95 "Hg10 mi
7:56 PM83 °FPassing clouds.8 mph70%29.94 "Hg9 mi
6:56 PM85 °FPartly sunny.5 mph63%29.93 "Hg10 mi
5:56 PM84 °FPartly sunny.9 mph80%29.91 "Hg10 mi
4:56 PM89 °FBroken clouds.6 mph52%29.90 "Hg10 mi
3:56 PM91 °FScattered clouds.13 mph47%29.90 "Hg10 mi
2:56 PM93 °FScattered clouds.14 mph46%29.90 "Hg10 mi
1:56 PM93 °FScattered clouds.13 mph44%29.91 "Hg10 mi
Weather by CustomWeather, © 2015

See weather overviewHow to use our weather pages